カタログに戻る

DELTA 1 DEB

運用中LEO
NORAD 10720·DEBRIS·🇺🇸 United States

打ち上げ Jul 29, 1976 から Vandenberg Space Force Base

Loading…

次のパス (今後24時間)

TLE

最新Source: Space-Track

元期: Sep 14, 2026, 13:01 UTC

1 10720U 76077AR  26257.54266389  .00000281  00000-0  30631-2 0  9998
2 10720 102.1322 358.0566 0358546  29.6618  37.7248 12.05690710206683

AllMySatでDELTA 1 DEBをリアルタイム追跡

Download on the App Store